FREGAT R/B (49504 NORAD) Tracking and Keplerian Element Data
This shows tracking and keplerian element data for the satellite.
Feedback or suggestion? Click here.
Element | Value |
Catalog | 49504 |
Name | FREGAT R/B |
Epoch Orbit | 56 |
Epoch Day | 356.88153928 |
Epoch Year | 2021 |
RAAN | 27.9795 |
Inclination | 63.8184 |
Eccentricity | 0.6972557 |
Argument of Perigee | 270.1687 |
Mean Anonmoly | 17.0544 |
Mean Motion | 2.01562413 |
Decay Rate | 2.42E-06 |
L1 | 1 49504U 21113B 21356.88153928 .00000242 00000+0 00000+0 0 9997 |
L2 | 2 49504 63.8184 27.9795 6972557 270.1687 17.0544 2.01562413 561 |
Live tracking and technical data element details for FREGAT R/B (NORAD 49504). FREGAT R/B can be tracked NOW for your location showing map with azimuth and elevation plus other details from your city location.
Track the satellite on the map from your city or location and see movement details for azimuth, elevation, latitude, longitude, range, height, and movement on the map or in text.
IsCatalogInMostPopularTable: catalog: 49504, numindb: 53
Update: records affected: 1
GetName: 49504 FREGAT R/B
Hit Count: updated at: Sun, 22 May 2022 04:43:50 GMT